TimeBST,TemperatureF,Dew PointF,Humidity,Sea Level PressureIn,VisibilityMPH,Wind Direction,Wind SpeedMPH,Gust SpeedMPH,PrecipitationIn,Events,Conditions,WindDirDegrees,DateUTC
12:20 AM,71.6,55.4,57,30.21,-9999.0,SSW,6.9,-,N/A,,Clear,200,2013-07-16 23:20:00
12:50 AM,71,54,45,30.22,14,SSW,5.8,,,,,200,2013-07-16 23:50:00
12:50 AM,71.6,55.4,57,30.21,-9999.0,SSW,5.8,-,N/A,,Clear,200,2013-07-16 23:50:00
1:20 AM,69.8,55.4,60,30.21,-9999.0,SSW,5.8,-,N/A,,Clear,200,2013-07-17 00:20:00
1:50 AM,69,54,48,30.22,11,South,5.8,,,,,190,2013-07-17 00:50:00
1:50 AM,69.8,55.4,60,30.21,-9999.0,South,6.9,-,N/A,,Clear,190,2013-07-17 00:50:00
2:20 AM,68.0,55.4,64,30.21,6.2,South,4.6,-,N/A,,Unknown,190,2013-07-17 01:20:00
2:50 AM,68,54,51,30.22,14,South,5.8,,,,,180,2013-07-17 01:50:00
2:50 AM,68.0,55.4,64,30.21,6.2,SSW,5.8,-,N/A,,Unknown,200,2013-07-17 01:50:00
3:20 AM,66.2,55.4,68,30.21,6.2,SSW,5.8,-,N/A,,Unknown,200,2013-07-17 02:20:00
3:50 AM,66,54,55,30.22,13,SW,4.6,,,,,220,2013-07-17 02:50:00
3:50 AM,62.6,55.4,77,30.21,6.2,SW,4.6,-,N/A,,Unknown,220,2013-07-17 02:50:00
4:20 AM,62.6,55.4,77,30.21,-9999.0,SW,4.6,-,N/A,,Clear,230,2013-07-17 03:20:00
4:50 AM,66,55,60,30.22,14,West,3.5,,,,,270,2013-07-17 03:50:00
4:50 AM,62.6,55.4,77,30.21,-9999.0,West,4.6,-,N/A,,Clear,280,2013-07-17 03:50:00
5:20 AM,62.6,57.2,82,30.21,-9999.0,Variable,2.3,-,N/A,,Clear,0,2013-07-17 04:20:00
5:50 AM,64,55,65,30.23,11,NW,2.3,,,,,310,2013-07-17 04:50:00
5:50 AM,62.6,57.2,82,30.24,-9999.0,NW,2.3,-,N/A,,Clear,310,2013-07-17 04:50:00
6:20 AM,64.4,57.2,77,30.24,-9999.0,Calm,Calm,-,N/A,,Clear,0,2013-07-17 05:20:00
6:50 AM,67,56,60,30.24,9,NW,2.3,,,,,320,2013-07-17 05:50:00
6:50 AM,66.2,57.2,73,30.24,-9999.0,Calm,Calm,-,N/A,,Clear,0,2013-07-17 05:50:00
7:20 AM,68.0,57.2,68,30.24,-9999.0,Variable,3.5,-,N/A,,Clear,0,2013-07-17 06:20:00
7:50 AM,72,57,49,30.25,9,North,3.5,,,,,350,2013-07-17 06:50:00
7:50 AM,69.8,57.2,64,30.24,-9999.0,Variable,2.3,-,N/A,,Clear,0,2013-07-17 06:50:00
8:20 AM,71.6,57.2,60,30.24,-9999.0,Variable,3.5,-,N/A,,Clear,0,2013-07-17 07:20:00
8:50 AM,75,57,43,30.25,8,East,3.5,,,,,100,2013-07-17 07:50:00
8:50 AM,73.4,59.0,61,30.24,-9999.0,Variable,3.5,-,N/A,,Clear,0,2013-07-17 07:50:00
9:20 AM,75.2,59.0,57,30.24,-9999.0,Variable,2.3,-,N/A,,Clear,0,2013-07-17 08:20:00
9:50 AM,78,57,38,30.25,11,ESE,3.5,,,,,110,2013-07-17 08:50:00
9:50 AM,77.0,57.2,50,30.24,-9999.0,Variable,3.5,-,N/A,,Clear,0,2013-07-17 08:50:00
10:20 AM,78.8,57.2,47,30.24,-9999.0,SSE,5.8,-,N/A,,Clear,160,2013-07-17 09:20:00
10:50 AM,80,55,31,30.25,13,SE,5.8,,,,,140,2013-07-17 09:50:00
10:50 AM,80.6,59.0,48,30.24,-9999.0,SE,5.8,-,N/A,,Clear,130,2013-07-17 09:50:00
11:20 AM,80.6,57.2,45,30.24,-9999.0,ESE,5.8,-,N/A,,Clear,120,2013-07-17 10:20:00
11:50 AM,82,56,30,30.24,12,SE,5.8,,,,,140,2013-07-17 10:50:00
11:50 AM,82.4,57.2,42,30.24,-9999.0,SSW,5.8,-,N/A,,Clear,200,2013-07-17 10:50:00
12:20 PM,84.2,55.4,37,30.24,-9999.0,Variable,4.6,-,N/A,,Clear,0,2013-07-17 11:20:00
12:50 PM,85,55,25,30.24,11,SW,4.6,,,,,220,2013-07-17 11:50:00
12:50 PM,84.2,55.4,37,30.24,-9999.0,East,5.8,-,N/A,,Clear,90,2013-07-17 11:50:00
1:20 PM,86.0,55.4,35,30.24,-9999.0,Variable,5.8,-,N/A,,Clear,0,2013-07-17 12:20:00
1:50 PM,88,56,24,30.23,12,SW,8.9,,,,Scattered Clouds,230,2013-07-17 12:50:00
1:50 PM,87.8,55.4,33,30.24,-9999.0,South,8.1,-,N/A,,Clear,170,2013-07-17 12:50:00
2:20 PM,87.8,55.4,33,30.24,-9999.0,SSE,8.1,-,N/A,,Clear,160,2013-07-17 13:20:00
2:50 PM,85,54,25,30.23,14,NNE,4.6,,,,Partly Cloudy,20,2013-07-17 13:50:00
2:50 PM,87.8,55.4,33,30.21,-9999.0,SE,6.9,-,N/A,,Clear,130,2013-07-17 13:50:00
3:20 PM,87.8,53.6,31,30.21,-9999.0,Variable,3.5,-,N/A,,Clear,0,2013-07-17 14:20:00
3:50 PM,89.6,53.6,29,30.21,-9999.0,Variable,3.5,-,N/A,,Clear,0,2013-07-17 14:50:00
4:20 PM,87.8,51.8,29,30.21,-9999.0,Variable,2.3,-,N/A,,Clear,0,2013-07-17 15:20:00
4:50 PM,85,53,24,30.21,12,East,6.9,,,,Mostly Cloudy,80,2013-07-17 15:50:00
4:50 PM,86.0,53.6,33,30.21,-9999.0,ESE,5.8,-,N/A,,Clear,120,2013-07-17 15:50:00
5:20 PM,86.0,53.6,33,30.21,-9999.0,Variable,3.5,-,N/A,,Clear,0,2013-07-17 16:20:00
5:50 PM,84.2,53.6,35,30.21,-9999.0,Variable,2.3,-,N/A,,Clear,0,2013-07-17 16:50:00
6:20 PM,86.0,53.6,33,30.21,-9999.0,East,8.1,-,N/A,,Clear,90,2013-07-17 17:20:00
6:50 PM,84,58,30,30.21,9,ESE,11.5,,,,Partly Cloudy,120,2013-07-17 17:50:00
6:50 PM,84.2,57.2,40,30.21,6.2,SE,10.4,-,N/A,,Partly Cloudy,130,2013-07-17 17:50:00
7:20 PM,82.4,57.2,42,30.21,6.2,SSW,11.5,-,N/A,,Partly Cloudy,200,2013-07-17 18:20:00
7:50 PM,80.6,57.2,45,30.21,6.2,South,10.4,-,N/A,,Partly Cloudy,190,2013-07-17 18:50:00
8:20 PM,78.8,57.2,47,30.24,-9999.0,SSW,9.2,-,N/A,,Clear,200,2013-07-17 19:20:00
8:50 PM,78.8,57.2,47,30.24,-9999.0,SSW,11.5,-,N/A,,Clear,200,2013-07-17 19:50:00
9:20 PM,77.0,57.2,50,30.24,-9999.0,SSW,6.9,-,N/A,,Clear,210,2013-07-17 20:20:00
9:50 PM,76,55,38,30.27,12,SW,5.8,,,,Scattered Clouds,220,2013-07-17 20:50:00
9:50 PM,77.0,55.4,47,30.27,-9999.0,SSW,5.8,-,N/A,,Clear,210,2013-07-17 20:50:00
10:20 PM,75.2,55.4,50,30.27,-9999.0,Variable,3.5,-,N/A,,Clear,0,2013-07-17 21:20:00
10:50 PM,75.2,55.4,50,30.27,-9999.0,Variable,2.3,-,N/A,,Clear,0,2013-07-17 21:50:00
11:20 PM,75.2,53.6,47,30.27,-9999.0,Variable,2.3,-,N/A,,Clear,0,2013-07-17 22:20:00
11:50 PM,73.4,57.2,57,30.27,-9999.0,East,5.8,-,N/A,,Clear,90,2013-07-17 22:50:00